Flag for Canada Weather past 2 weeks in St. Albert, Alberta, Canada

Now
66 °F

Sunny.


Feels Like: 66 °F
Forecast: 42 / 67 °F
Wind: 17 mph from South

Location: Edmonton Municipal

Current Time: Aug 29, 2014 at 5:08:29 PM

Latest Report: Aug 29, 2014 at 4:00 PM


Visibility: 9 mi

Pressure: 29.75 "Hg

Humidity: 56%

Dew point: 50 °F

Location of St. AlbertLocation

Historic Weather in St. Albert — Graph

°F

St. Albert temperature yesterday

Maximum temperature yesterday: 68 °F (at 5:00 PM)
Minimum temperature yesterday: 55 °F (at 6:00 AM)
Average temperature yesterday: 60 °F

Past Weeks' High & Low Weather Summary

 TemperatureHumidityPressure
High84 °F (Aug 14, 4:00 PM)94% (Aug 15, 4:00 AM)30.41 "Hg (Aug 15, 4:00 AM)
Low41 °F (Aug 23, 7:00 AM)29% (Aug 14, 5:00 PM)29.67 "Hg (Aug 19, 6:00 PM)
Average63 °F66%29.99 "Hg
* Reported Aug 14 4:00 PM — Aug 29 4:00 PM, St. Albert, Weather by CustomWeather, © 2014

Note: Actual official high and low records may vary slightly from our data, if they occured in-between our weather recording intervals... More about our weather records

Advertising

St. Albert weather history for previous 24 hours

 ConditionsComfort  
Time TempWeatherWind HumidityBarometerVisibility
4:00 PM
Aug 29
66 °FSunny.17 mph56%29.75 "Hg9 mi
3:00 PM66 °FSunny.15 mph52%29.76 "Hg9 mi
1:00 PM64 °FPassing clouds.17 mph52%29.81 "Hg9 mi
12:00 PM63 °FSunny.16 mph56%29.84 "Hg9 mi
11:00 AM63 °FSunny.16 mph56%29.87 "Hg9 mi
10:00 AM61 °FSunny.14 mph59%29.89 "Hg9 mi
9:00 AM57 °FSunny.14 mph59%29.91 "Hg9 mi
8:00 AM52 °FSunny.6 mph77%29.93 "Hg9 mi
7:00 AM46 °FClear.3 mph82%29.95 "Hg9 mi
6:00 AM46 °FClear.No wind87%29.96 "Hg9 mi
5:00 AM48 °FClear.5 mph82%29.96 "Hg9 mi
4:00 AM46 °FClear.2 mph82%29.98 "Hg9 mi
3:00 AM50 °FClear.2 mph76%29.99 "Hg9 mi
2:00 AM50 °FClear.No wind76%29.99 "Hg9 mi
1:00 AM52 °FClear.2 mph67%29.99 "Hg9 mi
12:00 AM54 °FClear.No wind63%30.00 "Hg9 mi
11:00 PM
Aug 28
57 °FClear.3 mph55%30.00 "Hg9 mi
10:00 PM61 °FClear.2 mph45%29.99 "Hg9 mi
9:00 PM61 °FPassing clouds.5 mph45%29.99 "Hg9 mi
8:00 PM63 °FSunny.5 mph45%29.98 "Hg9 mi
7:00 PM66 °FPassing clouds.9 mph37%29.97 "Hg9 mi
6:00 PM68 °FScattered clouds.6 mph35%29.97 "Hg9 mi
5:00 PM68 °FBroken clouds.6 mph35%29.97 "Hg9 mi
Weather by CustomWeather, © 2014

See weather overviewHow to use our weather pages